Theta_e
283 284 285 285 286 286 286 287 286 286 286 285 285 285 285 285 285 284 285 285 284 284 282 282 282 282 282 283 283 282 282 283 284 284 284 284 284 284 284 284 284 284 284 284 284 285 285 285 285 285 285 286 285 286 286 286 285 285 285 285 285 286
284 284 284 285 286 286 287 287 286 285 285 285 285 285 285 284 285 285 284 285 285 284 283 282 281 281 281 281 282 282 282 282 282 281 282 283 283 282 282 282 282 283 283 283 284 284 284 284 284 284 285 285 285 285 285 286 286 285 285 286 286 286
284 284 284 285 284 284 284 282 283 284 283 284 283 283 283 283 283 283 283 283 284 283 282 282 281 281 281 280 280 280 280 280 281 281 281 281 281 281 282 282 281 281 281 282 282 282 283 283 283 284 284 284 284 284 284 285 285 285 285 285 285 286
283 283 283 283 283 283 283 282 281 282 282 281 281 281 280 281 281 281 282 281 281 281 281 281 281 280 280 280 280 280 280 281 281 280 281 281 281 281 281 281 282 281 281 281 281 282 282 282 282 283 283 283 283 283 285 284 284 284 284 285 284 285
283 283 282 283 282 283 282 281 281 280 280 279 279 280 280 279 280 279 279 279 279 279 278 278 279 279 279 279 279 279 280 280 280 280 280 281 281 281 280 281 281 281 281 281 281 281 281 282 281 281 282 282 282 283 283 284 283 283 283 283 284 284
283 283 283 283 282 281 281 281 280 279 279 279 279 280 280 279 279 280 280 279 279 278 278 278 277 278 277 278 278 278 278 279 279 279 279 280 280 280 280 280 280 280 280 280 280 280 281 281 281 281 281 281 281 281 282 283 283 283 283 283 283 283
282 283 282 281 281 280 279 279 279 279 279 279 279 280 279 279 279 279 279 279 279 278 278 278 278 278 278 278 278 278 278 278 279 279 279 279 279 279 279 279 279 279 279 280 280 280 280 280 281 281 281 281 281 280 281 281 282 282 283 283 283 284
281 280 280 279 279 280 280 279 279 279 279 279 279 279 279 280 279 278 279 278 279 278 277 277 277 277 277 278 278 278 278 279 278 279 279 278 279 279 279 279 279 279 279 279 279 279 279 280 280 280 280 280 280 280 280 281 281 281 282 282 283 283
280 280 280 279 279 279 279 279 279 278 278 278 278 278 278 278 278 278 278 277 277 277 277 277 277 277 277 277 278 278 278 278 278 278 278 279 278 278 278 278 278 279 279 279 279 279 279 279 280 280 280 280 280 280 280 280 280 280 281 281 282 282
280 280 279 279 278 278 278 278 278 278 278 278 278 278 277 278 278 277 277 278 277 277 277 277 277 277 277 277 277 277 277 277 277 277 277 277 277 278 278 278 278 279 279 279 279 279 279 279 279 279 279 279 279 279 279 279 279 280 280 280 281 281
280 279 278 278 277 278 278 278 279 279 278 278 278 278 277 277 277 276 276 276 276 276 276 277 277 277 277 277 277 278 278 278 277 277 277 276 277 278 277 277 277 277 278 278 278 278 279 279 279 279 279 279 279 279 279 279 280 280 280 280 280 281
277 277 277 277 277 278 278 278 278 278 278 277 277 276 276 276 275 275 276 276 276 276 276 276 276 276 276 277 277 277 277 276 277 276 276 276 276 276 276 276 276 277 276 277 277 277 278 278 279 280 282 282 280 280 280 280 280 280 280 280 280 280
277 277 278 278 278 278 279 278 277 277 276 276 275 275 275 275 275 275 274 275 275 275 275 275 275 275 275 275 275 275 275 275 275 274 274 274 274 274 274 275 274 275 275 275 275 275 276 277 277 280 281 282 283 281 280 279 279 279 279 279 279 279
278 278 278 277 278 277 277 277 276 276 275 274 274 274 274 274 274 274 274 274 274 274 274 274 274 274 274 273 273 273 273 273 272 272 272 272 272 273 273 273 273 273 273 273 273 273 274 274 276 278 279 280 281 281 279 278 278 278 278 279 279 279
278 278 277 277 277 277 276 276 275 274 274 273 273 273 273 273 273 273 273 273 273 273 273 272 272 272 272 272 271 271 270 270 270 270 270 270 271 271 270 271 270 270 270 270 270 270 271 271 274 276 277 278 279 280 279 277 277 277 277 278 278 278
278 278 277 277 277 275 274 274 274 274 273 272 272 272 272 272 272 272 271 271 271 272 271 271 270 270 269 269 269 268 268 268 268 268 269 269 268 268 268 267 267 267 267 268 268 268 268 268 271 274 275 276 277 277 277 275 275 276 276 277 277 278
278 277 276 275 274 273 272 272 272 272 271 271 271 271 270 270 270 270 270 270 270 270 269 269 268 267 267 267 266 266 266 266 266 266 266 266 266 265 265 265 264 265 265 266 266 266 265 265 270 273 274 275 275 276 276 273 274 274 274 275 276 277
277 276 275 274 272 272 271 271 271 270 270 270 270 269 269 269 268 269 268 268 268 268 268 267 266 265 265 265 265 264 264 264 264 264 264 264 264 264 264 264 264 264 263 264 264 263 263 264 270 271 272 273 274 275 271 271 271 271 272 272 274 276
276 275 273 271 271 270 270 270 270 269 268 267 268 267 267 267 266 267 267 267 266 266 265 265 264 264 263 263 263 262 262 262 262 262 263 262 262 262 262 262 262 262 262 262 262 262 262 263 266 270 271 272 273 272 269 269 270 270 270 270 271 272
274 272 271 270 270 270 270 269 267 267 266 266 266 266 266 266 265 266 265 265 264 265 264 264 263 262 262 261 261 261 262 262 262 261 262 261 261 261 261 261 261 261 261 261 261 261 261 262 265 269 270 271 272 272 269 269 269 269 269 270 271 271
272 271 270 269 268 269 268 266 265 265 265 265 265 265 264 264 265 264 263 264 264 264 263 262 262 262 261 261 261 260 260 260 260 261 261 261 260 260 260 260 260 260 260 261 261 263 262 261 264 268 269 270 271 270 268 268 268 268 268 269 269 271
270 269 268 267 268 267 266 265 264 263 264 264 264 263 262 264 264 263 263 263 263 263 262 262 261 260 260 260 260 260 260 260 260 260 260 260 260 259 259 259 259 259 259 260 260 261 261 261 262 264 269 270 271 272 269 268 267 267 267 268 268 268
270 269 267 267 267 265 265 264 263 263 263 263 262 261 263 263 263 262 262 262 262 261 261 260 260 259 259 259 259 260 260 260 260 260 259 259 259 258 258 258 258 258 259 260 260 260 261 261 261 263 268 270 271 271 271 267 267 267 267 267 268 268
267 267 266 266 265 264 263 262 261 262 262 261 261 261 263 262 262 262 260 260 260 260 259 259 259 259 259 259 259 258 258 259 259 259 258 258 258 257 257 258 258 258 258 259 260 260 260 262 264 262 266 269 270 271 272 268 268 268 268 267 268 268
266 266 265 265 263 264 264 260 260 260 260 260 261 262 262 261 261 260 260 259 259 258 258 258 258 258 258 258 258 258 258 258 258 258 258 257 257 257 256 257 257 257 257 258 259 259 260 261 261 266 265 269 270 271 272 272 271 273 270 268 267 267
265 265 263 263 262 262 262 260 259 259 259 260 261 260 260 259 258 258 258 257 258 257 257 257 257 257 257 258 258 257 257 257 257 257 257 257 257 257 256 257 257 257 256 256 257 258 259 260 261 264 267 267 270 271 272 273 273 273 270 269 268 269
263 263 262 263 261 261 259 259 258 258 257 260 260 258 258 258 257 256 256 256 256 256 257 257 257 257 257 257 257 257 257 257 257 256 257 257 257 256 256 256 256 256 256 256 256 257 259 260 260 261 264 268 270 271 272 272 273 273 273 269 269 269
260 259 259 261 261 261 260 259 258 256 258 259 259 258 257 256 255 255 256 256 256 256 256 256 256 256 257 257 257 257 257 257 257 257 257 257 256 256 256 255 256 256 256 257 258 258 259 260 261 261 262 264 266 268 270 271 272 272 273 272 271 273
259 258 259 258 260 259 259 257 257 258 258 257 259 258 256 253 255 255 255 255 256 256 256 256 256 257 257 257 257 257 257 258 257 257 257 256 256 256 256 256 256 257 258 258 259 260 261 262 262 263 263 264 263 264 265 266 267 270 271 269 267 269
259 258 257 258 259 258 258 257 256 256 256 256 257 255 253 254 255 255 255 255 255 256 256 256 258 258 257 257 257 257 257 257 257 257 256 257 257 257 257 258 258 259 259 259 261 262 263 263 264 264 265 265 266 266 267 266 266 265 265 265 266 267
257 257 256 257 258 257 256 255 255 255 256 257 255 254 252 254 255 255 254 255 255 255 257 256 256 257 257 257 257 257 257 257 257 258 258 260 261 260 260 260 261 263 264 264 264 263 263 264 264 265 270 270 272 270 269 268 268 268 268 270 273 270
256 256 256 257 257 256 255 255 255 255 257 255 254 254 253 254 255 254 254 255 255 256 256 256 256 256 257 257 256 257 257 261 264 264 262 261 265 268 269 269 265 266 266 266 266 266 265 265 267 272 274 274 274 274 274 274 274 275 273 274 275 273
256 255 255 256 256 255 254 255 255 255 256 256 256 255 254 254 254 255 255 256 255 257 257 257 256 257 256 257 257 257 257 257 258 264 266 266 266 268 269 270 270 271 271 268 266 268 272 272 273 273 273 274 274 274 274 274 274 275 275 275 271 270
255 255 255 256 256 254 254 254 254 254 254 254 254 254 254 254 254 254 255 256 256 257 257 256 256 256 256 256 257 256 256 256 255 256 262 266 266 267 268 269 269 270 270 270 270 268 267 270 272 273 273 273 273 273 273 274 274 274 275 275 274 269
256 256 256 255 254 253 253 253 254 253 253 254 254 253 253 253 254 254 255 255 256 256 256 256 256 256 256 256 256 255 256 255 255 255 255 258 265 266 267 267 268 268 269 270 270 271 271 271 272 273 273 273 273 273 273 274 274 274 275 274 269 265
255 255 254 253 252 252 252 253 254 253 254 254 255 254 252 253 254 254 254 255 255 256 256 256 256 256 256 256 256 255 255 255 255 255 256 256 256 258 262 264 265 266 268 268 269 270 270 271 271 272 272 273 273 273 273 273 271 273 273 270 265 263
254 253 253 254 253 252 252 253 254 254 254 253 252 251 251 252 254 254 255 257 257 256 256 256 256 256 256 256 255 255 256 256 256 257 256 256 255 256 256 257 259 263 267 265 266 268 270 270 271 271 272 272 273 273 273 272 266 264 264 264 264 263
252 252 252 253 252 252 251 253 254 254 253 252 250 250 251 253 253 254 255 255 256 255 256 256 256 256 256 255 256 256 257 257 256 256 256 257 257 257 257 257 258 259 263 267 267 268 268 269 270 271 271 272 273 272 271 264 262 262 263 264 264 264
Wind_Speed
3 3 3 2 3 3 3 3 3 4 4 4 4 5 3 3 3 3 4 4 4 4 4 4 5 4 4 3 3 4 4 5 5 5 5 5 5 6 6 6 6 6 6 5 6 7 7 7 7 7 7 7 7 7 7 6 4 5 6 6 4 6
3 3 3 3 2 1 1 1 2 4 4 5 5 5 5 6 6 5 6 5 4 5 4 4 4 4 4 5 6 7 6 6 5 5 5 5 6 5 5 6 6 7 7 7 6 7 6 7 7 7 6 6 6 6 7 8 7 6 7 7 5 4
3 2 2 1 0 0 0 2 2 1 2 2 2 2 3 3 4 4 4 5 5 5 5 4 4 4 4 5 4 4 4 5 5 5 5 5 6 4 6 6 6 5 6 6 7 7 7 7 8 6 6 6 7 7 6 7 8 7 8 6 8 6
3 2 2 1 0 0 1 0 0 0 1 1 0 0 1 1 2 1 2 2 2 2 3 4 4 3 4 4 5 5 6 6 7 6 6 7 7 6 8 8 7 6 6 7 8 8 7 7 7 8 6 7 7 7 6 7 7 8 8 7 8 8
4 4 4 3 3 3 2 2 2 3 3 3 3 3 3 4 3 2 1 1 2 2 3 3 3 3 3 4 4 5 6 6 6 6 6 7 8 7 6 7 8 9 9 9 9 9 9 9 8 7 7 8 8 9 9 7 8 8 9 9 8 8
4 3 3 4 4 4 4 4 4 4 4 4 3 4 5 4 4 3 2 2 3 2 2 3 3 3 3 3 3 4 5 5 5 5 5 6 6 8 7 6 7 7 8 9 10 10 10 11 10 10 9 9 8 9 10 10 9 9 9 10 10 9
4 5 5 4 5 4 4 4 4 4 4 4 4 5 5 4 4 3 4 2 2 3 3 4 4 4 4 4 4 5 5 5 6 5 6 7 8 7 6 7 5 6 7 8 10 11 11 11 11 11 12 11 9 10 10 11 10 10 10 10 10 10
5 5 5 4 4 6 5 5 4 4 4 4 4 4 4 5 3 3 3 1 1 3 3 4 4 5 5 5 5 6 6 6 6 6 6 5 7 8 7 8 8 7 9 9 8 8 9 10 11 12 12 12 11 11 11 11 11 12 12 11 11 10
6 7 6 6 5 6 5 3 2 2 3 4 4 4 4 5 4 4 2 2 1 2 3 3 4 4 4 5 6 5 5 6 6 7 7 7 7 8 8 7 8 8 8 10 10 10 11 11 10 10 11 11 10 10 12 13 13 12 11 12 12 12
7 7 7 5 3 2 3 2 0 1 1 2 1 1 2 2 2 2 1 1 1 2 4 4 4 4 4 4 4 4 4 5 5 6 6 6 7 8 8 9 10 10 9 10 10 11 10 10 11 11 11 10 10 11 11 11 12 13 13 13 13 12
7 4 0 0 0 1 1 1 1 1 3 5 5 5 5 3 4 4 4 4 5 4 4 4 4 4 5 6 7 7 8 7 7 6 6 5 6 7 7 8 9 11 12 11 10 11 10 10 11 9 9 10 12 12 13 13 14 14 14 14 14 14
3 4 4 3 4 4 3 2 3 4 5 4 4 4 4 3 4 4 4 5 4 5 5 6 5 6 6 8 9 8 8 8 8 8 8 9 9 9 9 10 10 10 11 12 12 11 10 10 9 11 19 20 14 13 12 12 13 13 13 15 15 15
6 7 7 6 5 4 4 3 4 4 4 3 4 4 3 4 4 4 4 5 4 5 5 5 6 7 8 7 8 8 9 9 9 10 10 10 10 11 11 10 11 11 10 11 11 12 11 11 11 23 25 25 28 19 14 14 14 14 15 14 15 16
6 6 6 5 4 4 4 4 3 4 4 3 4 3 3 4 4 4 4 4 5 5 7 7 7 8 7 7 8 8 8 9 10 11 11 12 12 12 11 12 11 12 11 10 11 12 12 12 19 26 26 27 28 25 18 15 15 14 14 14 15 14
7 7 6 5 5 5 3 4 4 4 3 3 2 3 4 4 4 5 5 5 5 6 5 6 7 7 7 6 6 8 9 10 11 11 11 12 12 12 12 12 13 12 11 11 13 12 13 13 20 24 26 26 26 27 23 14 14 14 13 14 14 14
5 5 6 5 5 5 4 4 4 3 3 2 2 3 3 4 4 4 5 4 5 5 5 5 5 5 6 6 8 8 9 9 10 9 9 10 11 11 12 13 13 14 13 13 13 13 14 15 19 25 27 27 27 27 24 15 14 15 15 16 15 15
6 5 5 5 5 4 4 4 3 2 2 2 2 2 3 3 4 4 4 4 4 4 4 6 5 6 7 7 8 8 9 9 10 10 9 9 10 10 12 11 12 11 11 11 12 12 16 15 24 25 26 25 25 26 23 16 14 12 14 15 16 15
10 8 7 4 5 4 3 3 2 3 2 2 3 3 3 3 3 4 3 3 3 4 5 6 6 6 7 8 8 8 10 9 9 10 9 10 10 9 9 10 10 11 13 11 11 12 15 15 23 24 25 25 25 27 16 14 15 14 14 15 15 13
6 7 7 5 4 4 3 3 3 3 2 3 3 3 3 3 4 4 3 3 3 4 4 5 5 6 7 7 9 10 10 10 11 9 7 10 10 10 9 10 9 10 10 13 11 12 14 15 19 24 26 25 27 21 13 14 12 13 13 14 15 18
6 5 7 7 5 4 3 3 3 3 3 2 3 3 4 3 4 3 2 3 3 4 5 5 5 7 8 7 9 10 10 9 9 9 7 9 11 11 9 9 10 8 9 11 13 11 15 15 18 25 25 26 26 22 16 13 13 15 15 13 12 13
7 7 6 6 6 3 3 3 2 2 2 1 2 2 3 3 3 2 3 4 4 5 5 5 5 6 8 9 9 9 11 10 10 9 8 8 9 11 9 10 10 9 8 9 12 18 19 15 17 23 24 26 25 20 14 14 14 15 15 15 17 15
8 5 5 5 5 3 3 2 1 0 1 2 2 3 3 3 1 2 3 4 5 5 5 5 6 7 7 10 10 9 10 9 9 9 9 9 8 10 9 9 9 12 10 9 11 11 12 14 13 16 26 24 25 24 16 12 13 13 15 14 14 15
6 7 6 5 4 3 2 1 0 0 1 2 2 3 3 2 2 4 4 5 5 5 6 6 6 9 9 8 10 10 9 8 9 10 10 10 9 8 10 10 10 11 11 9 9 10 11 11 14 14 24 25 25 26 22 12 13 13 13 13 14 13
6 6 4 3 4 3 2 1 1 1 1 1 4 3 2 2 3 4 4 5 6 6 7 7 7 7 8 8 8 10 11 9 9 9 10 9 9 11 11 10 10 9 10 9 10 10 11 12 20 16 20 25 25 25 27 17 13 15 14 15 13 14
6 5 5 3 3 2 1 1 1 1 1 3 4 2 2 3 4 4 4 5 7 7 8 7 8 9 7 8 8 10 12 10 9 9 8 10 11 10 11 9 10 9 10 9 8 8 10 11 12 21 19 23 26 26 26 27 23 27 19 14 14 13
5 5 3 3 2 1 1 1 0 1 2 5 2 2 3 3 4 4 5 6 7 7 7 7 8 8 7 8 9 9 10 11 10 9 8 9 9 9 10 9 8 9 9 10 10 9 10 11 11 15 23 22 26 26 27 27 28 27 17 15 13 12
6 5 2 2 1 1 1 1 0 2 4 3 1 3 4 4 4 5 6 7 7 7 7 7 7 8 8 8 8 9 10 11 9 10 8 8 9 9 10 10 8 9 10 10 10 10 10 10 11 11 16 24 25 26 27 27 28 27 27 19 13 14
4 4 2 1 2 1 1 0 0 3 4 3 3 4 4 4 5 5 7 7 7 7 7 8 8 7 8 8 7 8 8 10 10 9 10 9 9 9 10 10 9 9 10 11 11 11 11 11 10 11 10 12 17 19 25 29 28 28 27 26 20 27
3 2 1 1 1 1 0 1 2 3 4 4 4 4 4 5 5 7 6 7 7 7 6 7 7 8 7 6 7 7 8 8 8 9 9 9 10 10 10 11 10 10 10 11 11 12 11 10 9 9 9 10 10 11 14 15 16 23 26 19 15 19
2 1 1 1 2 1 1 2 4 4 4 4 4 4 4 4 5 6 7 8 7 7 6 7 8 9 8 7 7 8 9 8 7 8 9 10 10 10 11 11 11 11 13 9 10 11 10 10 10 10 11 12 11 11 10 10 10 10 10 12 13 14
2 2 2 2 1 1 1 4 4 4 4 4 4 4 4 6 5 6 7 7 6 7 6 6 7 7 8 8 8 7 8 10 9 9 10 11 9 9 11 10 11 10 11 10 11 10 9 10 11 10 15 17 22 19 15 11 10 10 10 13 22 16
2 1 1 2 1 1 2 4 4 4 4 4 4 4 4 6 6 5 6 6 6 7 6 6 7 7 7 8 9 9 9 12 20 16 12 11 19 27 27 23 15 13 11 10 10 9 11 11 12 24 30 28 28 29 30 28 27 26 21 24 30 20
1 1 1 2 1 2 3 4 4 4 4 4 4 4 5 5 6 6 6 6 6 7 8 7 7 7 7 7 8 8 10 11 13 20 23 21 22 24 26 25 27 27 25 17 12 13 24 26 28 28 28 29 29 29 29 29 27 28 29 28 18 11
1 2 2 2 1 2 3 5 5 4 5 4 5 4 4 5 5 6 7 7 7 8 8 7 7 8 8 8 7 8 9 10 12 15 19 22 21 23 24 25 25 24 22 23 21 18 12 19 25 28 28 29 29 28 29 29 29 27 26 25 24 12
1 1 1 1 2 3 4 5 6 4 4 5 4 4 4 5 5 6 7 7 8 8 8 8 7 7 7 8 9 9 9 9 10 12 15 18 22 23 20 21 22 20 20 23 24 25 23 23 24 27 27 27 28 29 28 29 29 26 25 25 13 8
1 1 2 3 3 4 4 6 6 5 4 4 5 4 4 5 6 6 6 6 7 8 7 7 7 7 8 8 8 8 9 9 9 10 11 14 16 20 21 16 11 14 20 23 25 25 25 25 26 26 27 27 27 29 28 26 18 21 22 18 10 8
1 2 3 3 3 3 4 6 6 4 5 4 4 4 4 5 6 5 7 12 9 6 7 7 7 7 8 8 8 8 9 9 9 9 11 11 12 13 14 17 20 21 21 19 19 22 26 26 27 27 26 27 27 26 27 24 12 11 11 11 8 9
2 3 3 3 3 4 5 8 6 4 4 4 4 4 4 5 5 5 5 5 6 6 6 6 6 7 7 8 8 8 8 9 9 10 10 10 10 10 12 14 13 14 21 28 24 25 25 28 28 27 27 26 25 24 24 12 11 11 10 10 9 9
Wind_Direction
96 99 84 71 61 39 19 11 26 40 43 48 58 51 43 36 34 30 32 41 34 34 31 32 29 29 31 25 20 21 24 14 9 5 354 346 352 350 349 347 343 341 340 341 333 334 334 333 334 334 334 337 332 330 322 315 316 309 300 290 288 284
139 128 122 93 76 59 355 9 32 38 29 37 28 24 18 15 17 14 17 8 21 8 13 11 19 16 17 4 9 3 3 353 353 349 352 345 342 340 339 341 339 337 336 333 327 321 321 321 321 325 323 326 320 317 322 316 322 314 303 301 291 279
199 213 213 228 291 298 291 67 90 25 15 43 33 26 356 4 348 3 353 1 354 6 354 344 355 347 356 353 360 354 337 336 333 334 328 327 333 332 332 333 330 326 326 323 323 319 315 313 311 312 312 314 310 310 306 307 310 309 303 301 300 290
200 228 268 291 316 331 101 340 0 35 208 222 297 322 293 281 300 301 298 324 340 332 327 326 325 334 344 354 339 342 334 330 331 324 334 332 319 334 327 328 325 321 320 322 319 319 313 308 305 306 306 301 301 299 299 302 301 297 294 294 293 295
193 202 200 199 210 227 243 260 231 231 238 240 226 200 246 210 238 250 234 290 332 323 323 325 324 339 336 348 326 331 324 321 320 320 323 315 314 319 318 315 319 318 321 318 314 313 312 309 309 307 306 303 302 298 295 290 290 290 289 288 280 280
190 189 211 224 225 229 233 230 238 242 241 237 226 213 239 251 244 257 288 314 317 311 338 325 323 341 321 323 297 311 304 311 307 305 306 295 302 304 303 309 305 304 304 304 304 306 307 309 308 308 305 300 299 298 295 292 286 282 279 278 280 279
200 212 216 216 224 228 235 234 233 230 236 236 229 235 237 240 249 239 253 241 293 310 339 319 325 331 316 305 302 295 297 301 303 306 306 309 306 299 299 298 294 292 293 292 297 302 303 302 303 302 301 300 297 295 295 294 291 286 281 277 275 274
212 219 225 227 223 215 217 227 229 232 237 245 224 227 251 242 229 219 231 275 312 312 328 317 332 317 307 302 302 298 300 303 302 300 298 295 293 295 297 298 303 298 295 291 284 281 282 288 293 295 296 297 300 298 295 293 291 291 290 287 281 273
223 220 219 218 215 213 218 229 265 293 305 296 317 332 344 348 354 350 8 3 7 329 319 313 306 296 296 295 289 294 299 298 299 301 298 298 295 294 295 293 291 292 287 289 291 289 288 288 283 281 281 284 287 290 292 294 292 287 286 285 286 285
214 216 218 220 249 2 8 17 175 238 238 287 343 63 80 11 48 71 88 93 26 9 348 339 317 307 301 295 293 292 292 294 296 294 292 298 297 295 294 296 297 296 295 291 290 288 287 286 286 285 285 286 288 287 284 284 286 288 287 284 280 278
209 213 225 14 100 148 108 78 90 80 59 52 43 48 37 28 49 33 26 19 11 351 329 326 327 326 331 329 333 336 333 330 324 318 314 307 299 296 293 294 295 298 297 296 292 292 290 286 283 285 287 291 292 289 288 288 286 286 286 285 286 284
198 182 167 147 141 156 158 105 64 57 64 50 41 42 11 30 30 29 12 9 351 341 338 335 333 337 339 342 339 334 328 325 325 324 322 316 311 307 304 301 300 298 299 300 299 295 294 291 290 287 292 295 294 293 291 289 288 287 286 286 286 283
152 148 147 155 144 127 108 95 80 77 64 50 39 28 4 24 16 17 10 349 345 336 335 338 341 345 344 337 331 326 329 328 326 323 318 314 311 309 308 307 305 302 299 300 301 301 299 297 298 300 301 302 301 300 299 296 293 289 286 283 280 280
146 141 143 149 145 129 122 113 106 77 59 40 30 6 4 21 16 4 355 346 342 345 348 345 341 339 332 333 327 329 329 327 324 322 319 316 315 314 311 308 306 306 309 308 307 302 299 297 298 301 304 303 301 299 298 296 291 287 282 281 280 279
168 158 151 155 154 128 121 126 107 92 83 44 0 12 17 12 8 355 350 348 345 339 341 340 334 329 329 330 333 328 326 323 318 315 317 314 314 316 313 312 315 310 313 313 308 304 303 301 304 307 307 304 302 300 297 292 288 284 280 277 275 275
168 166 159 149 127 116 115 98 105 112 95 70 15 33 16 2 353 353 334 338 336 333 334 334 338 333 330 331 327 323 317 315 309 310 312 310 312 311 309 309 309 309 311 312 311 307 306 303 311 311 309 307 305 301 298 289 284 281 279 277 273 271
169 160 144 134 131 130 116 88 94 106 85 60 43 25 10 357 345 335 326 329 328 334 342 350 341 329 323 322 317 314 310 308 309 310 311 310 307 310 307 309 309 307 309 310 311 310 305 304 309 310 308 308 307 303 301 292 287 284 280 277 274 272
175 167 154 137 120 107 102 103 92 78 57 37 30 8 354 338 331 319 319 317 331 355 352 343 326 321 318 314 312 310 307 307 303 306 309 303 298 294 294 295 298 301 305 308 307 303 299 301 307 309 308 309 307 304 300 293 289 286 283 281 280 274
150 141 129 126 118 116 101 88 71 68 47 20 358 357 323 326 315 308 312 324 355 348 336 327 316 311 309 309 308 304 303 304 304 300 301 295 294 295 296 295 295 300 300 301 299 297 296 299 306 306 307 306 304 304 296 290 282 277 277 278 282 284
114 121 127 123 106 96 91 79 74 62 34 355 333 326 315 309 296 301 336 342 332 324 319 315 310 304 304 302 297 298 297 297 293 292 297 292 298 295 292 294 294 289 290 292 294 295 297 297 302 304 304 304 301 300 297 294 288 284 282 278 269 270
135 130 118 117 108 97 90 87 74 56 2 320 304 299 297 293 289 336 336 318 316 311 308 303 300 296 297 295 293 293 294 294 293 292 292 284 285 287 292 293 291 289 285 283 285 295 296 293 297 301 302 301 300 300 294 293 292 291 292 295 294 293
123 117 120 121 130 128 117 98 104 134 264 297 296 294 282 283 317 328 317 308 305 302 297 295 294 290 289 291 291 288 285 288 291 290 290 287 283 287 290 288 287 289 288 286 286 286 288 290 292 297 300 300 299 299 296 290 288 287 289 288 290 293
141 146 144 136 142 140 142 136 118 4 294 288 292 274 276 308 335 316 306 304 298 294 291 289 287 289 286 280 286 289 287 286 286 290 289 290 289 281 286 286 286 286 288 287 282 283 285 284 290 293 298 299 299 298 297 288 285 287 288 288 285 284
118 117 121 136 143 143 137 122 74 313 283 292 277 278 318 329 309 304 299 296 293 291 289 287 285 279 283 287 286 288 287 284 280 282 287 286 287 287 286 287 288 286 287 284 286 283 283 284 289 291 293 296 297 296 295 293 285 285 284 283 280 285
145 152 154 154 147 138 144 103 54 307 288 279 280 311 317 294 296 293 290 289 288 287 287 287 286 287 285 285 283 283 288 290 290 286 283 285 286 285 287 288 288 289 289 287 281 277 278 279 279 286 288 291 294 296 295 292 291 290 290 288 287 285
145 145 156 150 143 142 131 117 50 294 289 278 291 303 300 300 290 290 289 285 282 285 285 284 283 279 279 281 284 283 285 290 289 287 285 285 286 292 293 290 289 287 286 289 288 282 279 277 275 277 282 286 289 294 294 294 294 293 289 286 282 286
158 151 172 179 160 167 132 116 70 292 280 276 305 292 294 292 293 291 286 283 283 283 282 282 279 282 279 278 279 286 289 288 290 293 289 286 290 291 291 288 284 283 284 284 282 280 277 272 269 268 272 279 286 291 293 293 292 293 293 291 285 277
132 145 163 233 181 162 137 144 241 281 268 291 295 290 286 288 291 288 282 283 283 281 285 288 286 278 275 276 272 270 277 283 292 290 293 292 289 290 288 286 284 277 280 280 278 276 275 271 268 269 266 264 269 272 277 281 284 287 289 288 288 288
138 155 169 205 225 158 214 274 265 252 276 283 286 287 287 286 283 283 284 284 285 285 283 283 290 293 288 284 282 277 279 283 280 284 288 289 291 288 283 282 281 281 277 279 282 281 277 276 274 275 271 266 261 256 259 265 267 269 272 274 271 272
146 162 187 222 220 180 240 269 272 270 273 276 280 281 287 285 279 281 284 287 287 287 285 284 283 288 296 292 290 293 292 282 278 281 285 289 288 287 284 282 281 279 280 265 276 282 284 287 287 286 286 282 273 267 262 249 246 249 239 256 261 258
154 177 178 228 217 219 260 269 275 275 275 277 284 289 293 283 280 281 285 285 288 287 288 285 288 292 293 296 289 276 278 289 290 282 274 270 266 263 269 264 274 273 280 282 286 288 284 289 290 282 292 297 304 302 297 289 280 269 266 265 273 272
156 164 195 236 212 237 259 271 274 275 274 280 279 279 279 283 288 289 287 287 288 291 294 295 295 295 295 293 296 296 289 280 292 293 294 295 294 294 293 294 292 292 291 289 282 284 292 294 294 303 307 307 303 304 304 304 304 305 302 299 301 306
146 157 220 243 234 247 256 273 279 284 283 275 276 272 275 284 292 289 289 295 295 298 303 303 300 298 294 293 296 297 300 304 300 298 300 300 299 297 298 299 298 299 300 301 302 301 301 302 305 306 306 307 309 310 310 310 308 307 307 309 312 310
182 211 238 239 233 253 266 279 279 271 275 277 276 276 273 279 283 293 297 299 299 304 302 297 296 298 297 299 298 299 303 303 306 305 306 308 305 303 303 301 302 304 306 308 308 309 304 304 305 307 309 312 313 310 309 308 309 311 312 312 318 314
195 217 234 245 248 264 271 275 277 267 267 270 271 272 274 274 277 285 293 296 301 300 300 300 299 299 301 303 306 305 305 304 305 308 313 314 310 308 304 303 305 308 311 315 315 313 311 311 311 313 314 313 313 312 311 310 315 320 320 322 321 311
206 240 251 259 257 259 266 271 274 269 270 269 269 270 265 274 271 275 281 291 294 297 298 300 298 301 301 299 299 297 299 297 297 300 303 309 315 321 321 314 296 301 315 317 317 316 316 318 318 317 316 316 315 313 313 317 321 323 320 318 310 304
235 257 257 263 272 277 272 271 274 271 269 269 270 274 274 273 277 275 277 289 294 284 290 294 296 299 298 299 299 298 296 296 300 303 303 304 307 311 312 314 319 321 324 324 320 320 322 322 321 321 319 318 317 318 324 333 332 323 318 316 306 297
256 263 267 272 270 269 272 275 275 271 271 275 275 276 280 281 280 279 281 284 288 286 280 289 291 294 295 296 295 294 298 302 304 305 300 299 298 297 300 305 311 312 317 322 326 326 326 325 323 321 321 322 327 331 338 334 322 314 308 304 301 296